Warning: Javascript must be enabled to use all the features on this page!


Page Loading - Please Wait...

Click to hideNews Bulletins

Peak Streamflow for the Nation

USGS 05294000 POMME DE TERRE RIVER AT APPLETON, MN

Swift County, Minnesota
Hydrologic Unit Code 07020002
Latitude  45°12'10", Longitude  96°01'20" NAD27
Drainage area 905  square miles
Gage datum 978.63 feet above NAVD88
Output formats
Table
Graph
Tab-separated file
peakfq (watstore) format
Reselect output format
Water
Year
Date Gage
Height
(feet)
Stream-
flow
(cfs)
1931 1931-03-26 1.08 67.0
1932 1932-02-29 3.661 212
1933 1933-02-25 3.381 195
1934 1934-04-07 2.70 130
1935 1935-03-16 4.101,2 380
1936 1936-03-22 6.321,2 720
1937 1937-04-11 5.001,2 540
1938 1938-03-16   2681,2
1939 1939-03-23   8501,2
1940 1940-04-02   5001,2
1941 1941-04-06 2.222 272
1942 1942-06-08 4.22 819
1943 1943-03-31 9.102 3,470
1944 1944-06-05 2.682 461
1945 1945-03-20 2.692 473
1946 1946-03-19 8.401 1,2002
1947 1947-04-12   1,8001
1948 1948-03-26 8.11 2,440
1949 1949-04-03 3.301,2 538
1950 1950-03-28 7.76 980
1951 1951-04-08 9.30 1,580
1952 1952-04-08 10.13 5,050
1953 1953-06-27 6.523 755
1954 1954-04-29 6.69 840
1955 1955-07-13 6.16 565
1956 1956-04-11 6.08 479
1957 1957-06-25 6.11 516
1958 1958-04-08 6.11 538
1959 1959-06-02 6.25 595
1960 1960-04-07 7.56 1,270
1961 1961-04-20 5.22 148
1962 1962-07-22 7.68 1,360
1963 1963-03-27 6.30 595
1964 1964-04-17 6.16 525
1965 1965-04-09 9.63 2,310
1966 1966-03-17 8.41 1,660
1967 1967-03-26 7.24 1,080
1968 1968-06-21 5.40 193
1969 1969-04-11 13.782 5,520
1970 1970-04-09 6.40 605
1971 1971-03-16 6.74 792
1972 1972-03-22 7.65 1,290
1973 1973-03-13 7.09 984
1974 1974-05-13 5.36 186
1975 1975-04-19 7.14 1,100
1976 1976-03-26 6.861 858
1977 1977-03-14 5.67 274
1978 1978-03-24 7.64 1,350
1979 1979-04-14 7.64 1,290
1980 1980-06-09 6.51 676
1981 1981-06-15 6.51 666
1982 1982-04-01 7.87 1,510
1983 1983-03-21 5.50 264
1984 1984-03-27 7.63 1,280
1985 1985-03-19 8.87 1,980
1986 1986-03-28 8.51 1,920
1987 1987-03-25 6.05 472
1988 1988-03-26 5.35 187
1989 1989-03-28 6.75 849
1990 1990-03-29 5.42 206
1991 1991-08-03 5.72 320
1992 1992-03-08 5.95 410
1993 1993-07-10 9.56 2,370
1994 1994-03-27 9.072 2,220
1995 1995-03-29 8.30 1,840
1996 1996-03-18 6.95 1,390
1997 1997-04-07 18.13 8,8903
1998 1998-04-10 6.05 748
1999 1999-05-18 5.752 591
2000 2000-03-04 5.212 3602
2001 2001-04-08 16.07 7,980
2004 2004-06-12 6.23 401
2005 2005-06-17 8.46 1,400
2006 2006-04-05 8.00 1,140
2007 2007-03-23 9.01 1,750
2008 2008-06-14 7.50 888
2009 2009-03-25 11.81 3,740
2010 2010-03-19 10.212 2,600
2011 2011-04-06 11.00 3,170
2012 2012-06-21 6.09 435
2013 2013-06-25 9.27 2,030
2014 2014-06-22 8.27 1,340
2015 2015-05-19 9.04 1,780
2016 2016-07-13   469
2017 2017-06-18 7.142 757
2018 2017-10-06 8.52 1,520
2019 2019-03-29 11.39 3,440
2020 2019-10-24 8.31 1,330
2021 2021-04-15 7.27 830
2022 2022-05-14 10.05 2,540
?
  Peak Gage-Height Qualification Codes.
?
  Peak Streamflow Qualification Codes.